CW8593 Weather Reports


Display with metric or nautical units.
time (UTC)temp
F
wind
direction
speed
MPH
gust
MPH
rain 1hr
in
rain 24hr
in
rain mn
in
humidity
%
barometer
mb
20141023013306 61 290 5.0 10.0 0.00 0.00 0.00 77 1021.9
20141023012306 62 286 2.0 8.0 0.00 0.00 0.00 80 1021.9
20141023010305 62 21 0.0 3.0 0.00 0.00 0.00 80 1022.0
20141023004305 63 22 1.0 3.0 0.00 0.00 0.00 80 1022.1
20141023002305 63 296 3.0 9.0 0.00 0.00 0.00 79 1022.1
20141023001308 63 292 6.0 12.0 0.00 0.00 0.00 79 1022.0
20141023000310 63 319 7.0 12.0 0.00 0.00 0.00 78 1022.0
20141022234305 63 290 5.0 10.0 0.00 0.00 0.00 77 1022.1
20141022233306 63 308 5.0 8.0 0.00 0.00 0.00 77 1022.1
20141022232306 64 313 2.0 10.0 0.00 0.00 0.00 77 1022.1
20141022231305 64 279 3.0 12.0 0.00 0.00 0.00 77 1022.1
20141022230305 64 326 6.0 14.0 0.00 0.00 0.00 77 1022.1
20141022225306 64 298 7.0 13.0 0.00 0.00 0.00 77 1022.2
20141022222305 63 313 7.0 14.0 0.00 0.00 0.00 78 1022.5
20141022221305 64 314 3.0 10.0 0.00 0.00 0.00 79 1022.4
20141022220306 64 305 7.0 12.0 0.00 0.00 0.00 79 1022.6
20141022215305 64 287 6.0 10.0 0.00 0.00 0.00 78 1022.6
20141022214307 64 321 7.0 15.0 0.00 0.00 0.00 78 1022.6
20141022213309 64 298 9.0 13.0 0.00 0.00 0.00 78 1022.6
20141022210306 64 300 6.0 12.0 0.00 0.00 0.00 77 1022.6
20141022205305 64 291 7.0 12.0 0.00 0.00 0.00 76 1022.6
20141022203305 64 297 6.0 12.0 0.00 0.00 0.00 75 1022.6
20141022194304 65 303 4.0 6.0 0.00 0.00 0.00 68 1022.2
20141022190304 64 234 0.0 3.0 0.00 0.00 0.00 64 1021.7
20141022185304 64 235 0.0 3.0 0.00 0.00 0.00 66 1021.7
20141022183306 65 234 1.0 3.0 0.00 0.00 0.00 69 1021.7
20141022182304 65 235 0.0 1.0 0.00 0.00 0.00 70 1021.5
20141022181304 65 234 0.0 0.0 0.00 0.00 0.00 71 1021.4
20141022175304 66 234 2.0 3.0 0.00 0.00 0.00 73 1021.3
20141022174306 66 235 0.0 1.0 0.00 0.00 0.00 73 1021.3
20141022173305 67 234 0.0 3.0 0.00 0.00 0.00 73 1021.2
20141022172305 67 234 0.0 3.0 0.00 0.00 0.00 74 1021.2
20141022170304 69 234 0.0 6.0 0.00 0.00 0.00 71 1021.0
20141022165305 69 234 1.0 6.0 0.00 0.00 0.00 71 1020.8
20141022164305 69 190 3.0 8.0 0.00 0.00 0.00 70 1020.7
20141022163305 69 187 3.0 8.0 0.00 0.00 0.00 68 1020.7
20141022154305 70 197 3.0 7.0 0.00 0.00 0.00 67 1020.7
20141022153305 70 164 6.0 9.0 0.00 0.00 0.00 67 1020.8
20141022152304 70 134 4.0 9.0 0.00 0.00 0.00 67 1020.7
20141022151304 70 141 5.0 12.0 0.00 0.00 0.00 68 1020.7
20141022150304 71 130 3.0 8.0 0.00 0.00 0.00 66 1020.7
20141022141304 70 163 7.0 14.0 0.00 0.00 0.00 68 1021.0
20141022140305 70 138 8.0 13.0 0.00 0.00 0.00 67 1020.9
20141022134305 70 165 4.0 12.0 0.00 0.00 0.00 69 1021.0
20141022133304 70 189 7.0 15.0 0.00 0.00 0.00 69 1021.1
20141022132306 71 198 6.0 15.0 0.00 0.00 0.00 68 1021.1
20141022131304 71 233 5.0 12.0 0.00 0.00 0.00 67 1021.1
20141022130306 72 196 5.0 12.0 0.00 0.00 0.00 61 1021.1
20141022125305 72 199 3.0 13.0 0.00 0.00 0.00 60 1021.3
20141022124304 71 180 7.0 14.0 0.00 0.00 0.00 60 1021.4
20141022122304 71 165 6.0 10.0 0.00 0.00 0.00 63 1021.6
20141022120304 71 150 6.0 12.0 0.00 0.00 0.00 61 1021.6
20141022113304 72 188 6.0 12.0 0.00 0.00 0.00 62 1021.8
20141022112305 72 206 7.0 16.0 0.00 0.00 0.00 63 1021.9
20141022104305 73 222 5.0 9.0 0.00 0.00 0.00 55 1022.2
20141022101304 74 250 3.0 9.0 0.00 0.00 0.00 46 1022.2
20141022100305 73 334 2.0 8.0 0.00 0.00 0.00 36 1022.1
20141022091306 73 319 5.0 9.0 0.00 0.00 0.00 38 1021.7
20141022090306 72 290 3.0 10.0 0.00 0.00 0.00 39 1021.6
20141022085305 72 300 3.0 7.0 0.00 0.00 0.00 41 1021.7
20141022083304 71 5 3.0 9.0 0.00 0.00 0.00 46 1021.5
20141022080303 68 357 6.0 12.0 0.00 0.00 0.00 54 1021.2
20141022075304 67 18 8.0 10.0 0.00 0.00 0.00 56 1021.0
20141022072304 65 333 3.0 7.0 0.00 0.00 0.00 59 1020.8
20141022070304 65 321 3.0 8.0 0.00 0.00 0.00 57 1020.5
20141022065304 65 342 5.0 8.0 0.00 0.00 0.00 57 1020.3
20141022064304 63 313 3.0 5.0 0.00 0.00 0.00 61 1020.3
20141022063303 64 313 0.0 1.0 0.00 0.00 0.00 60 1020.3
20141022062302 64 313 1.0 6.0 0.00 0.00 0.00 60 1020.0
20141022060304 63 296 1.0 3.0 0.00 0.00 0.00 64 1019.8
20141022054304 62 293 0.0 1.0 0.00 0.00 0.00 70 1019.5
20141022052304 63 292 0.0 0.0 0.00 0.00 0.00 68 1019.1
20141022051303 64 292 0.0 0.0 0.00 0.00 0.00 68 1019.1
20141022050303 64 293 0.0 3.0 0.00 0.00 0.00 67 1019.0
20141022044304 66 293 1.0 3.0 0.00 0.00 0.00 62 1019.0
20141022042304 68 311 4.0 7.0 0.00 0.00 0.00 54 1018.9
20141022041305 68 298 2.0 7.0 0.00 0.00 0.00 55 1018.9
20141022040304 69 299 5.0 7.0 0.00 0.00 0.00 56 1019.0
20141022035306 68 292 3.0 5.0 0.00 0.00 0.00 57 1018.8
20141022032304 69 294 5.0 10.0 0.00 0.00 0.00 58 1018.6
20141022031303 64 295 1.0 5.0 0.00 0.00 0.00 72 1018.7
20141022023304 65 295 0.0 3.0 0.00 0.00 0.00 78 1018.7
20141022022304 66 295 0.0 3.0 0.00 0.00 0.00 77 1018.8
20141022021303 67 295 0.0 3.0 0.00 0.00 0.00 75 1018.9
20141022020304 68 295 0.0 3.0 0.00 0.00 0.00 75 1018.9
20141022015303 68 295 0.0 5.0 0.00 0.00 0.00 77 1019.0
20141022014304 67 295 1.0 5.0 0.00 0.00 0.00 85 1019.2